This is the latest recevied weather packets stored in our database for station/object WX8ASH-13. If no packets are shown the sender has not sent any weather packets the latest 1 day(s).
| Time | Temp. | Humidity | Pressure | Rain* | Wind** | Luminosity | Snow |
|---|---|---|---|---|---|---|---|
| 1777983333 | 15° C | 86% | 1007.7 hPa | 0 mm | 0 m/s | - | - |
| 1777983031 | 15° C | 86% | 1007.3 hPa | 0 mm | 0 m/s | - | - |
| 1777982731 | 15° C | 86% | 1007.2 hPa | 0 mm | 0 m/s | - | - |
| 1777982434 | 15° C | 86% | 1007.1 hPa | 0 mm | 0 m/s | - | - |
| 1777982131 | 15° C | 86% | 1006.9 hPa | 0 mm | 0.89 m/s, 231° | - | - |
| 1777981834 | 14.44° C | 86% | 1006.8 hPa | 0 mm | 3.13 m/s, 269° | - | - |
| 1777981531 | 14.44° C | 86% | 1006.7 hPa | 0.25 mm | 0 m/s | - | - |
| 1777981233 | 14.44° C | 86% | 1006.4 hPa | 0.25 mm | 1.79 m/s, 284° | - | - |
| 1777980931 | 14.44° C | 87% | 1006.3 hPa | 0.25 mm | 3.13 m/s, 243° | - | - |
| 1777980633 | 14.44° C | 87% | 1006.5 hPa | 0.25 mm | 2.24 m/s, 150° | - | - |
| 1777980331 | 14.44° C | 87% | 1006.4 hPa | 0.25 mm | 0.45 m/s, 290° | - | - |
| 1777980030 | 14.44° C | 87% | 1006.5 hPa | 0.25 mm | 0.89 m/s, 214° | - | - |
| 1777979732 | 14.44° C | 87% | 1006.7 hPa | 0.25 mm | 1.79 m/s, 294° | - | - |
| 1777979430 | 14.44° C | 86% | 1006.7 hPa | 0.25 mm | 1.79 m/s, 218° | - | - |
| 1777979132 | 14.44° C | 87% | 1006.6 hPa | 0.25 mm | 0.45 m/s, 291° | - | - |
| 1777978829 | 14.44° C | 86% | 1006.6 hPa | 0.25 mm | 0.45 m/s, 262° | - | - |
| 1777978531 | 14.44° C | 85% | 1006.5 hPa | 0.25 mm | 0.45 m/s, 311° | - | - |
| 1777978230 | 15° C | 85% | 1006.7 hPa | 0.25 mm | 0 m/s | - | - |
| 1777977929 | 15° C | 84% | 1006.7 hPa | 0 mm | 0.45 m/s, 270° | - | - |
| 1777977629 | 15.56° C | 83% | 1006.7 hPa | 0 mm | 0.89 m/s, 248° | - | - |
| 1777977330 | 15.56° C | 81% | 1006.8 hPa | 0 mm | 0.45 m/s, 316° | - | - |
| 1777977029 | 16.11° C | 79% | 1006.8 hPa | 0 mm | 0 m/s | - | - |
| 1777976731 | 16.11° C | 76% | 1006.7 hPa | 0 mm | 2.68 m/s, 274° | - | - |
| 1777976428 | 16.67° C | 76% | 1006.7 hPa | 0 mm | 1.79 m/s, 293° | - | - |
| 1777976131 | 16.67° C | 73% | 1006.5 hPa | 0 mm | 1.34 m/s, 308° | - | - |
* Rain latest hour (hover to see other rain measurements)
** Current wind speed in m/s (hover to see current wind gust speed)